Wind_Speed
19 19 19 19 19 18 18 18 18 18 19 18 18 17 17 17 16 15 15 14 13 12 11 10 9 9 8 7 7 6 5 5 5 5 5 4 4 4 4 4 4 5 5
21 21 21 20 20 20 20 20 19 19 19 19 19 19 19 18 18 18 17 16 16 15 14 13 12 11 11 10 9 8 8 7 7 6 6 6 6 5 5 5 5 5 6
23 23 22 22 22 22 21 21 21 21 20 20 20 20 20 20 19 19 19 19 18 17 16 15 14 13 13 12 12 11 10 9 9 8 8 7 7 7 7 6 6 6 6
27 26 25 25 24 24 23 23 23 22 22 22 21 21 21 21 21 20 20 20 20 19 19 18 17 16 15 14 14 13 13 12 11 10 9 9 9 8 8 8 8 8 8
30 29 28 27 27 26 26 25 24 24 24 23 23 23 22 22 23 22 22 22 21 21 21 20 20 19 18 17 16 16 15 14 13 12 12 11 11 11 10 10 10 10 10
33 32 31 31 30 29 28 28 27 27 26 26 25 24 24 24 24 24 24 23 23 23 22 22 21 21 21 20 19 18 17 17 16 15 14 14 13 13 12 12 12 11 11
36 35 35 34 33 32 31 31 30 30 29 28 27 27 26 26 25 25 25 25 25 25 24 24 24 23 23 22 21 21 20 19 18 18 17 16 15 15 14 14 14 13 13
38 38 37 37 36 35 35 34 34 33 32 31 30 30 29 28 27 27 27 26 26 26 27 26 25 25 25 24 24 23 22 22 21 20 20 19 18 17 17 16 16 15 15
39 39 39 39 39 38 38 38 37 37 35 34 33 32 32 31 30 29 29 28 28 28 28 28 27 27 27 26 26 25 25 24 23 22 22 21 21 20 19 19 18 18 17
40 41 41 41 41 41 40 40 40 39 39 38 37 36 35 34 33 32 31 31 30 30 30 30 30 30 29 28 28 27 27 26 26 25 24 24 23 22 22 21 21 20 19
39 40 41 42 43 43 42 42 42 41 41 40 40 39 38 37 36 36 35 34 33 33 32 32 32 32 31 30 30 30 29 29 28 27 26 26 26 25 24 24 23 22 22
39 40 41 42 43 44 44 44 44 44 43 43 42 41 41 40 39 38 37 37 36 35 34 34 34 33 33 33 32 32 31 31 30 29 29 28 28 27 27 26 26 25 24
40 40 41 41 42 43 45 45 46 45 45 45 44 44 43 42 42 41 39 39 38 37 36 36 35 35 35 35 34 34 33 33 32 32 31 31 30 30 29 29 28 28 27
41 41 42 42 43 44 44 46 46 47 46 46 46 46 45 45 44 43 42 41 40 39 38 38 37 38 37 37 36 36 35 35 34 33 33 33 32 32 32 31 30 30 29
44 44 45 45 45 46 46 47 48 48 48 48 48 48 48 47 46 46 45 44 43 42 42 40 39 39 39 38 37 37 37 37 37 35 35 35 34 34 33 33 33 32 31
46 47 47 47 48 48 49 49 50 51 51 51 51 50 50 50 49 48 47 47 46 45 44 44 43 41 40 40 39 37 37 38 38 37 36 36 36 35 35 35 34 34 33
47 48 49 49 50 50 51 52 52 53 54 54 54 54 53 53 52 51 50 49 48 47 47 47 46 45 43 42 41 40 39 39 39 39 38 38 38 37 37 36 36 36 35
45 46 47 49 50 51 51 52 53 54 55 55 56 56 56 56 55 55 53 52 51 50 50 49 48 47 46 44 43 42 42 41 40 40 40 40 39 39 39 38 38 37 37
43 44 45 47 48 50 51 52 53 53 54 55 56 56 56 56 57 57 57 55 54 53 52 51 50 48 48 47 46 45 45 44 43 42 41 41 41 41 41 40 40 39 39
42 43 44 45 46 48 49 50 51 52 53 54 55 56 56 56 57 57 58 58 57 56 54 53 53 52 51 49 48 47 47 46 45 44 43 43 42 42 42 42 42 41 41
41 41 42 43 44 45 46 48 49 50 51 52 54 55 55 55 56 57 56 57 58 58 57 56 55 54 53 52 51 50 49 49 48 47 46 44 43 43 43 43 43 43 43
37 38 40 41 42 43 44 46 47 48 49 51 52 54 53 53 54 55 54 55 56 57 56 56 55 54 54 54 54 53 51 50 49 48 47 46 45 45 44 44 44 43 44
35 35 36 38 39 39 41 42 43 45 47 49 50 51 52 53 52 52 51 51 54 55 56 56 55 55 54 54 55 54 53 51 50 49 48 48 47 47 46 46 45 44 44
32 33 34 34 35 36 37 38 39 40 42 44 47 48 49 50 50 51 52 52 52 53 53 53 54 55 55 54 54 55 55 55 54 51 49 48 47 48 48 47 47 47 45
30 31 31 32 32 32 33 34 35 36 38 39 41 45 46 48 48 50 51 51 51 51 51 52 54 55 54 54 54 54 54 54 54 54 51 49 48 48 49 49 49 47 46
28 28 28 29 29 29 29 30 31 32 33 35 37 40 43 44 46 48 49 50 50 49 49 50 52 54 53 53 54 54 54 54 54 54 53 52 51 49 49 49 49 48 47
Wind_Direction
261 261 260 262 262 262 262 262 262 260 260 260 260 260 260 261 261 262 265 266 267 266 265 263 260 260 257 254 252 249 247 246 245 248 253 257 264 273 285 301 321 332 340
262 261 261 261 261 262 262 262 263 262 261 260 260 260 260 261 261 262 263 264 265 266 265 263 260 259 259 257 256 254 252 251 251 252 255 257 260 265 273 283 299 311 319
261 261 261 261 261 261 262 262 262 262 261 261 260 260 260 260 260 261 261 262 263 264 265 264 261 259 259 259 258 257 255 255 255 255 257 257 259 262 266 272 282 293 301
260 260 261 261 261 261 261 261 262 262 261 262 262 261 260 260 261 261 261 262 262 263 263 264 263 261 260 260 259 258 257 256 256 257 258 259 259 260 262 266 272 281 288
259 259 260 260 261 261 261 261 262 262 262 262 262 262 262 262 262 263 262 262 262 262 262 263 263 262 261 260 260 260 259 258 257 257 257 258 259 260 261 263 266 273 280
258 258 259 259 260 260 261 261 261 261 262 262 262 261 262 262 263 264 264 264 263 262 262 263 263 263 262 261 260 260 260 259 258 258 257 258 259 260 261 262 264 269 274
258 258 258 258 258 259 260 261 261 261 261 262 263 262 262 262 264 265 265 265 264 263 263 263 263 263 263 263 261 261 261 260 259 259 258 258 258 259 261 263 264 266 271
257 258 258 258 258 258 259 260 260 261 261 261 261 262 262 263 263 264 265 265 265 264 264 263 263 263 263 263 262 261 261 261 261 260 259 259 259 260 261 263 264 266 269
257 257 257 258 258 258 258 258 259 260 260 261 261 261 262 263 263 263 263 264 264 265 266 264 262 263 264 263 263 262 262 262 262 261 260 260 260 260 262 263 265 266 269
257 257 257 257 257 258 258 258 258 259 259 260 260 260 261 262 262 261 261 262 263 264 265 265 263 263 263 263 264 264 263 263 262 261 261 261 261 261 262 264 265 267 269
259 258 258 257 257 257 257 258 258 258 259 259 259 259 260 261 261 261 261 261 262 262 263 264 264 263 263 264 264 264 263 263 262 262 262 262 262 262 263 264 265 267 269
261 260 260 259 258 258 258 258 258 258 258 259 259 259 259 259 260 261 261 261 261 261 262 263 263 264 264 264 264 264 263 263 263 262 262 262 263 264 264 264 265 267 269
262 262 262 261 260 259 258 258 258 258 258 258 258 259 259 259 259 259 260 260 261 261 261 261 263 263 264 264 264 264 263 263 263 262 262 263 263 264 265 265 266 267 268
264 264 263 263 262 261 260 259 259 258 258 258 258 258 258 259 259 259 259 259 259 259 260 261 263 263 263 263 264 263 263 263 263 263 262 262 263 264 265 265 266 267 269
264 264 263 263 263 262 261 261 260 259 258 258 257 257 257 257 258 258 258 258 258 258 259 260 262 263 263 263 263 263 262 262 263 263 262 262 263 264 265 266 267 268 269
265 264 263 263 262 262 261 261 260 259 259 258 258 257 257 256 256 256 257 257 257 258 258 259 260 261 262 263 263 262 263 262 261 262 262 262 263 263 264 266 267 268 269
266 265 264 263 263 263 262 262 261 260 259 258 257 256 256 256 256 256 255 256 256 257 257 257 258 259 260 262 262 262 263 263 261 261 262 262 262 263 264 265 266 267 268
267 266 265 264 263 263 263 262 262 260 259 258 258 257 255 255 255 255 255 255 255 255 256 256 256 258 258 259 261 262 262 262 262 262 262 262 262 262 263 263 265 266 267
268 267 267 266 265 264 263 263 262 261 259 258 258 257 256 255 255 255 255 255 255 255 255 255 255 255 256 257 259 260 261 261 260 262 263 262 261 261 262 263 264 265 266
270 269 268 267 267 265 264 263 263 262 260 259 258 257 255 254 254 254 254 254 254 254 254 254 254 254 254 256 256 257 260 260 260 261 261 261 261 262 262 262 263 264 265
272 271 269 268 268 266 265 263 262 261 260 258 258 257 255 255 254 254 254 254 253 253 253 253 253 253 253 254 255 255 256 258 259 260 261 260 260 261 262 262 262 263 264
273 273 271 270 269 267 266 264 263 261 260 259 257 256 255 255 254 253 252 253 253 252 252 252 253 253 253 255 255 255 255 255 257 258 259 259 260 260 260 261 263 263 263
275 275 274 272 271 269 267 265 263 262 261 260 258 256 256 255 253 252 251 252 252 251 252 252 251 252 252 254 255 255 255 256 257 258 258 258 259 259 260 261 262 262 263
278 278 277 275 274 273 270 267 266 265 263 262 258 256 255 253 253 252 252 252 253 253 252 252 251 252 252 252 254 255 255 255 256 256 257 258 258 259 260 260 261 261 262
283 283 280 277 276 275 274 272 268 266 264 262 260 256 254 253 252 251 251 252 252 253 253 251 251 252 252 253 254 254 255 256 256 256 257 257 258 258 259 260 260 260 261
286 285 284 280 277 277 276 274 271 270 268 265 262 258 256 254 252 252 252 252 253 255 254 252 251 252 253 253 253 254 255 255 255 256 257 257 258 258 259 259 260 261 261
Height
5864 5864 5865 5866 5867 5867 5868 5869 5870 5871 5872 5872 5873 5874 5875 5875 5876 5877 5877 5878 5878 5878 5879 5879 5879 5879 5879 5879 5879 5879 5878 5878 5878 5878 5878 5878 5878 5878 5878 5878 5878 5878 5877
5860 5861 5862 5863 5864 5865 5865 5866 5867 5868 5869 5869 5870 5871 5872 5873 5874 5874 5875 5876 5876 5877 5877 5878 5878 5878 5878 5878 5878 5878 5878 5878 5878 5877 5877 5877 5877 5877 5877 5877 5877 5877 5877
5856 5858 5859 5860 5861 5862 5862 5863 5864 5865 5865 5866 5867 5868 5869 5870 5871 5872 5872 5873 5874 5875 5875 5876 5876 5876 5876 5876 5876 5876 5876 5876 5876 5876 5876 5876 5876 5876 5876 5876 5876 5876 5876
5852 5854 5855 5856 5857 5858 5859 5860 5861 5861 5862 5863 5864 5865 5866 5866 5867 5868 5869 5870 5871 5872 5872 5873 5874 5874 5874 5874 5874 5875 5875 5875 5875 5875 5875 5875 5875 5875 5875 5875 5875 5874 5874
5848 5849 5851 5852 5853 5854 5855 5856 5857 5858 5859 5860 5860 5861 5862 5863 5864 5865 5866 5867 5868 5868 5869 5870 5871 5871 5872 5872 5872 5872 5873 5873 5873 5873 5873 5873 5873 5873 5873 5873 5873 5873 5873
5842 5844 5846 5847 5849 5850 5851 5852 5853 5854 5855 5856 5856 5857 5858 5859 5860 5861 5862 5863 5864 5865 5866 5866 5867 5868 5868 5869 5869 5870 5870 5870 5871 5871 5871 5871 5871 5871 5871 5871 5871 5871 5870
5837 5838 5840 5842 5843 5845 5846 5847 5848 5849 5850 5851 5852 5853 5854 5855 5856 5857 5858 5859 5860 5861 5862 5862 5863 5864 5865 5865 5866 5867 5867 5867 5868 5868 5869 5869 5869 5869 5869 5868 5868 5868 5868
5831 5832 5834 5835 5837 5839 5840 5841 5843 5844 5845 5846 5847 5848 5849 5851 5852 5853 5853 5854 5855 5856 5857 5858 5859 5860 5861 5861 5862 5863 5864 5864 5865 5865 5866 5866 5866 5866 5866 5866 5866 5866 5865
5824 5825 5827 5829 5830 5832 5833 5835 5836 5838 5839 5841 5842 5843 5844 5845 5847 5848 5848 5849 5850 5851 5852 5853 5854 5855 5856 5857 5858 5859 5860 5860 5861 5862 5862 5862 5863 5863 5863 5863 5863 5863 5862
5816 5818 5820 5821 5823 5825 5826 5828 5829 5831 5832 5834 5836 5837 5838 5839 5841 5842 5843 5844 5845 5846 5847 5848 5849 5850 5851 5852 5853 5854 5855 5856 5857 5858 5858 5858 5859 5859 5859 5859 5859 5859 5859
5809 5811 5812 5814 5815 5817 5818 5820 5822 5823 5825 5827 5828 5830 5832 5833 5834 5835 5837 5838 5839 5840 5841 5842 5843 5845 5846 5847 5848 5849 5850 5851 5852 5853 5854 5854 5854 5855 5855 5855 5855 5855 5855
5801 5803 5804 5806 5807 5809 5810 5812 5814 5815 5817 5819 5821 5822 5824 5826 5827 5829 5830 5832 5833 5834 5835 5836 5837 5839 5840 5841 5842 5843 5844 5846 5847 5848 5848 5849 5850 5850 5850 5851 5851 5851 5851
5793 5795 5796 5797 5799 5800 5802 5803 5805 5807 5808 5810 5812 5814 5816 5818 5820 5821 5823 5824 5826 5827 5828 5830 5831 5832 5833 5834 5836 5837 5838 5840 5841 5842 5843 5843 5844 5845 5845 5846 5846 5846 5846
5785 5786 5787 5789 5790 5791 5792 5794 5796 5797 5799 5801 5803 5805 5807 5809 5811 5813 5815 5817 5818 5820 5821 5823 5824 5825 5826 5827 5829 5830 5832 5833 5834 5836 5836 5837 5838 5839 5839 5840 5840 5841 5841
5775 5776 5777 5779 5780 5781 5783 5784 5786 5787 5789 5791 5794 5796 5798 5800 5802 5804 5806 5808 5810 5812 5814 5815 5816 5817 5818 5820 5821 5823 5824 5826 5827 5829 5830 5830 5831 5832 5833 5834 5834 5835 5835
5764 5765 5766 5768 5769 5770 5772 5773 5775 5776 5778 5781 5783 5785 5787 5789 5792 5794 5797 5799 5801 5803 5805 5806 5808 5809 5811 5812 5813 5815 5816 5817 5819 5821 5822 5823 5824 5825 5826 5827 5827 5828 5828
5753 5754 5754 5756 5757 5758 5760 5761 5763 5764 5766 5769 5771 5773 5776 5778 5781 5784 5786 5789 5791 5793 5795 5797 5799 5800 5802 5803 5805 5806 5808 5809 5811 5812 5814 5815 5816 5817 5818 5819 5820 5821 5821
5742 5742 5742 5743 5744 5745 5747 5749 5750 5752 5754 5756 5758 5761 5764 5766 5769 5772 5774 5777 5780 5782 5785 5787 5789 5791 5792 5794 5796 5797 5799 5800 5802 5803 5805 5807 5808 5809 5810 5811 5812 5813 5813
5731 5731 5731 5731 5731 5732 5734 5735 5737 5739 5740 5743 5745 5748 5751 5754 5756 5760 5762 5765 5768 5771 5773 5776 5778 5780 5782 5784 5786 5787 5789 5790 5792 5794 5796 5798 5799 5800 5802 5803 5804 5805 5805
5721 5721 5720 5720 5719 5720 5721 5722 5724 5725 5727 5729 5732 5734 5737 5740 5743 5746 5750 5753 5756 5759 5762 5764 5767 5769 5770 5773 5775 5776 5778 5780 5782 5784 5786 5788 5789 5791 5792 5794 5794 5795 5796
5711 5710 5710 5709 5708 5709 5709 5710 5711 5713 5714 5716 5718 5721 5723 5727 5730 5733 5737 5740 5743 5746 5749 5752 5754 5756 5759 5761 5763 5765 5767 5769 5771 5773 5775 5778 5779 5781 5782 5783 5785 5786 5787
5702 5700 5699 5698 5697 5697 5697 5698 5699 5700 5701 5703 5705 5708 5710 5713 5717 5720 5724 5727 5730 5732 5735 5738 5741 5744 5747 5748 5751 5752 5755 5758 5760 5762 5764 5766 5769 5770 5772 5773 5774 5775 5777
5693 5692 5690 5688 5687 5687 5686 5686 5687 5688 5689 5691 5692 5694 5697 5700 5703 5707 5711 5714 5716 5719 5723 5726 5729 5732 5734 5736 5738 5741 5743 5747 5749 5751 5753 5755 5757 5759 5760 5762 5763 5764 5766
5685 5683 5681 5680 5678 5677 5677 5676 5676 5677 5678 5678 5679 5681 5684 5687 5690 5694 5698 5701 5704 5707 5709 5713 5716 5718 5721 5724 5726 5728 5732 5734 5737 5740 5742 5743 5745 5747 5749 5750 5752 5753 5754
5678 5675 5673 5672 5670 5669 5668 5667 5667 5667 5667 5667 5668 5670 5672 5675 5679 5682 5685 5688 5691 5694 5697 5700 5703 5705 5708 5711 5714 5716 5719 5721 5723 5726 5729 5732 5733 5735 5737 5738 5740 5741 5743
5671 5669 5666 5665 5663 5662 5660 5659 5659 5658 5657 5657 5658 5660 5662 5664 5667 5670 5673 5676 5679 5682 5685 5687 5690 5693 5696 5698 5701 5703 5706 5708 5711 5713 5716 5719 5721 5723 5724 5726 5728 5730 5731